Weather History for Watonga, OK

Change the Weather History Date:

Friday, February 14, 2014

  Actual Average Record
Temperature  
Mean Temperature 44 °F -  
Max Temperature 57 °F 52 °F 75 °F (2005)
Min Temperature 32 °F 30 °F 13 °F (1978)
Degree Days  
Heating Degree Days 20    
Moisture  
Dew Point 34 °F    
Average Humidity 62    
Maximum Humidity 92    
Minimum Humidity 33    
Precipitation  
Precipitation 0.00 in - - ()
Sea Level Pressure  
Sea Level Pressure 29.93 in    
Wind  
Wind Speed 12 mph (NNW)    
Max Wind Speed 31 mph    
Max Gust Speed 38 mph    
Visibility 10 miles    
Events      
Averages and records for this station are not official NWS values.
T = Trace of Precipitation, MM = Missing Value Source: NWS Daily Summary

Daily Weather History Graph

Daily Weather History Graph

Search for Another Location

Airport:

Trip Planner

Search our weather history database for the weather conditions in past years. The results will help you decide how hot, cold, wet, or windy it might be!

Date:

Astronomy

Feb. 14, 2014 Rise Set
Actual Time 7:21 AM CST 6:14 PM CST
Civil Twilight 6:55 AM CST 6:40 PM CST
Nautical Twilight 6:25 AM CST 7:10 PM CST
Astronomical Twilight 5:55 AM CST 7:40 PM CST
Moon 6:17 PM CST (2/14) 6:50 AM CST (2/14)
Length of Visible Light 11h 45m
Length of Day
10h 52m
Full, 100% of the Moon is Illuminated
Feb 14
Full
Feb 14
Full
Feb 22
Last Quarter
Mar 1
New
Mar 8
First Quarter

Hourly Weather History & Observations

Time (CST) Temp. Windchill Dew Point Humidity Pressure Visibility Wind Dir Wind Speed Gust Speed Precip Events Conditions
12:15 AM 45.5 °F 43.2 °F 36.7 °F 71% 29.75 in 10.0 mi South 4.6 mph - N/A   Clear
12:35 AM 45.9 °F 41.7 °F 37.0 °F 71% 29.73 in 10.0 mi South 8.1 mph - N/A   Clear
12:55 AM 49.3 °F - 37.2 °F 63% 29.72 in 10.0 mi South 8.1 mph - N/A   Clear
1:15 AM 48.4 °F - 37.2 °F 65% 29.73 in 10.0 mi West 9.2 mph - N/A   Clear
1:35 AM 48.4 °F - 36.7 °F 64% 29.72 in 10.0 mi West 8.1 mph - N/A   Scattered Clouds
1:55 AM 48.4 °F - 37.2 °F 65% 29.70 in 10.0 mi SSW 12.7 mph - N/A   Scattered Clouds
2:15 AM 49.1 °F - 37.4 °F 64% 29.72 in 10.0 mi SW 10.4 mph - N/A   Scattered Clouds
2:35 AM 50.0 °F - 37.4 °F 62% 29.71 in 10.0 mi South 12.7 mph - N/A   Scattered Clouds
2:55 AM 49.1 °F - 37.6 °F 64% 29.71 in 10.0 mi SSW 6.9 mph - N/A   Clear
3:15 AM 48.0 °F - 37.8 °F 68% 29.71 in 10.0 mi SSW 9.2 mph - N/A   Clear
3:35 AM 47.5 °F - 38.3 °F 70% 29.70 in 10.0 mi SW 6.9 mph 12.7 mph N/A   Clear
3:55 AM 46.4 °F 41.9 °F 37.9 °F 72% 29.68 in 10.0 mi SW 9.2 mph - N/A   Clear
4:15 AM 48.6 °F - 38.3 °F 68% 29.68 in 10.0 mi SW 11.5 mph 17.3 mph N/A   Clear
4:35 AM 43.5 °F 38.9 °F 36.5 °F 76% 29.68 in 10.0 mi North 8.1 mph - N/A   Clear
4:55 AM 46.6 °F - 37.8 °F 71% 29.70 in 10.0 mi WSW 8.1 mph - N/A   Clear
5:15 AM 43.7 °F 38.6 °F 37.0 °F 77% 29.72 in 10.0 mi WNW 9.2 mph - N/A   Clear
5:35 AM 41.5 °F 37.1 °F 36.9 °F 83% 29.75 in 10.0 mi NW 6.9 mph - N/A   Clear
5:55 AM 42.3 °F 39.4 °F 36.5 °F 80% 29.75 in 10.0 mi NW 4.6 mph - N/A   Clear
6:15 AM 41.0 °F 34.7 °F 36.5 °F 84% 29.76 in 10.0 mi NNW 10.4 mph - N/A   Clear
6:35 AM 43.5 °F 38.9 °F 36.7 °F 77% 29.77 in 10.0 mi NNW 8.1 mph - N/A   Clear
6:55 AM 44.1 °F 37.1 °F 35.8 °F 73% 29.79 in 10.0 mi NNW 15.0 mph - N/A   Clear
7:15 AM 43.2 °F 35.3 °F 35.6 °F 75% 29.80 in 10.0 mi NNW 17.3 mph 23.0 mph N/A   Clear
7:35 AM 45.9 °F 37.0 °F 36.0 °F 68% 29.82 in 10.0 mi NNW 26.5 mph 31.1 mph N/A   Clear
7:55 AM 46.4 °F 37.7 °F 35.6 °F 66% 29.84 in 10.0 mi NNW 26.5 mph 34.5 mph N/A   Clear
8:15 AM 46.8 °F - 35.4 °F 65% 29.86 in 10.0 mi NNW 26.5 mph 31.1 mph N/A   Clear
8:35 AM 47.8 °F - 35.2 °F 62% 29.87 in 10.0 mi NNW 21.9 mph 31.1 mph N/A   Clear
8:55 AM 48.4 °F - 34.9 °F 60% 29.90 in 10.0 mi NNW 23.0 mph 29.9 mph N/A   Clear
9:15 AM 49.3 °F - 34.7 °F 57% 29.91 in 10.0 mi NNW 23.0 mph 29.9 mph N/A   Clear
9:35 AM 49.8 °F - 34.9 °F 56% 29.93 in 10.0 mi NNW 27.6 mph 36.8 mph N/A   Clear
9:55 AM 50.9 °F - 34.2 °F 53% 29.94 in 10.0 mi NNW 27.6 mph 33.4 mph N/A   Clear
10:15 AM 52.0 °F - 34.0 °F 50% 29.96 in 10.0 mi NNW 24.2 mph 35.7 mph N/A   Clear
10:35 AM 52.3 °F - 34.5 °F 51% 29.97 in 10.0 mi North 25.3 mph 38.0 mph N/A   Clear
10:55 AM 52.9 °F - 34.2 °F 49% 29.99 in 10.0 mi North 24.2 mph 36.8 mph N/A   Clear
11:15 AM 54.0 °F - 34.0 °F 47% 29.99 in 10.0 mi NNW 31.1 mph 38.0 mph N/A   Clear
11:35 AM 54.5 °F - 34.3 °F 47% 30.00 in 10.0 mi NNW 26.5 mph 35.7 mph N/A   Clear
11:55 AM 55.6 °F - 34.2 °F 44% 30.00 in 10.0 mi North 24.2 mph 31.1 mph N/A   Clear
12:15 PM 55.6 °F - 33.4 °F 43% 30.01 in 10.0 mi North 24.2 mph 38.0 mph N/A   Clear
12:35 PM 56.3 °F - 34.2 °F 43% 30.01 in 10.0 mi North 24.2 mph - N/A   Clear
12:55 PM 56.7 °F - 34.0 °F 42% 30.01 in 10.0 mi North 20.7 mph 28.8 mph N/A   Clear
1:15 PM 57.0 °F - 33.4 °F 41% 30.01 in 10.0 mi North 21.9 mph 29.9 mph N/A   Clear
1:35 PM 57.2 °F - 33.4 °F 41% 30.01 in 10.0 mi North 21.9 mph 32.2 mph N/A   Clear
1:55 PM 57.2 °F - 33.3 °F 40% 30.01 in 10.0 mi North 24.2 mph 32.2 mph N/A   Clear
2:15 PM 57.2 °F - 33.8 °F 41% 30.01 in 10.0 mi North 21.9 mph 29.9 mph N/A   Clear
2:35 PM 57.4 °F - 33.1 °F 40% 30.02 in 10.0 mi North 25.3 mph 29.9 mph N/A   Clear
2:55 PM 57.4 °F - 32.0 °F 38% 30.02 in 10.0 mi North 19.6 mph 26.5 mph N/A   Clear
3:15 PM 57.7 °F - 31.1 °F 36% 30.02 in 10.0 mi North 17.3 mph 26.5 mph N/A   Clear
3:35 PM 57.4 °F - 30.2 °F 36% 30.02 in 10.0 mi North 18.4 mph 26.5 mph N/A   Clear
3:55 PM 57.4 °F - 28.4 °F 33% 30.02 in 10.0 mi North 21.9 mph 25.3 mph N/A   Clear
4:15 PM 57.4 °F - 29.5 °F 35% 30.03 in 10.0 mi North 13.8 mph 20.7 mph N/A   Clear
4:35 PM 56.7 °F - 29.1 °F 35% 30.04 in 10.0 mi North 16.1 mph 27.6 mph N/A   Clear
4:55 PM 56.3 °F - 30.7 °F 38% 30.06 in 10.0 mi North 17.3 mph - N/A   Clear
5:15 PM 55.4 °F - 31.8 °F 41% 30.06 in 10.0 mi North 11.5 mph - N/A   Clear
5:35 PM 54.0 °F - 32.0 °F 43% 30.06 in 10.0 mi North 11.5 mph - N/A   Clear
5:55 PM 51.6 °F - 32.0 °F 47% 30.06 in 10.0 mi North 10.4 mph - N/A   Clear
6:15 PM 47.7 °F - 31.8 °F 54% 30.07 in 10.0 mi NNE 9.2 mph - N/A   Clear
6:35 PM 45.5 °F 40.8 °F 31.8 °F 59% 30.07 in 10.0 mi North 9.2 mph - N/A   Clear
6:55 PM 43.5 °F 38.3 °F 31.6 °F 63% 30.08 in 10.0 mi North 9.2 mph - N/A   Clear
7:15 PM 43.0 °F 37.7 °F 31.6 °F 64% 30.09 in 10.0 mi North 9.2 mph - N/A   Clear
7:35 PM 40.8 °F 36.2 °F 31.3 °F 69% 30.09 in 10.0 mi North 6.9 mph - N/A   Clear
7:55 PM 40.3 °F 35.5 °F 31.8 °F 72% 30.09 in 10.0 mi NNE 6.9 mph - N/A   Clear
8:15 PM 38.5 °F 33.4 °F 30.4 °F 73% 30.08 in 10.0 mi NE 6.9 mph - N/A   Clear
8:35 PM 36.0 °F - 29.8 °F 78% 30.08 in 10.0 mi Calm Calm - N/A   Clear
8:55 PM 36.9 °F - 30.9 °F 79% 30.07 in 10.0 mi Calm Calm - N/A   Clear
9:15 PM 33.1 °F - 30.2 °F 89% 30.08 in 10.0 mi Calm Calm - N/A   Clear
9:35 PM 34.9 °F 32.0 °F 30.7 °F 85% 30.08 in 10.0 mi SSW 3.5 mph - N/A   Clear
9:55 PM 35.1 °F - 30.2 °F 82% 30.08 in 10.0 mi Calm Calm - N/A   Clear
10:15 PM 36.7 °F - 30.7 °F 79% 30.10 in 10.0 mi Calm Calm - N/A   Clear
10:35 PM 33.3 °F 28.9 °F 29.7 °F 87% 30.11 in 10.0 mi NE 4.6 mph - N/A   Clear
10:55 PM 34.0 °F 29.8 °F 29.8 °F 85% 30.11 in 10.0 mi NE 4.6 mph - N/A   Clear
11:15 PM 32.7 °F 28.3 °F 30.2 °F 90% 30.11 in 10.0 mi ENE 4.6 mph - N/A   Clear
11:35 PM 32.9 °F 29.8 °F 30.4 °F 90% 30.12 in 10.0 mi ENE 3.5 mph - N/A   Clear
11:55 PM 32.5 °F 27.1 °F 30.4 °F 92% 30.11 in 10.0 mi East 5.8 mph - N/A   Clear